Torna al catalogo

FENGYUN 1C DEB

AttivoSSO
NORAD 31062·DEBRIS·🇨🇳 China

Lanciato May 10, 1999 da Taiyuan Satellite Launch Center

Loading…

Prossimi Passaggi (prossime 24 ore)

TLE

AggiornatoSource: Space-Track

Epoca: Sep 14, 2026, 18:30 UTC

1 31062U 99025BFG 26257.77107057  .00000045  00000-0  81154-4 0  9995
2 31062  99.0148  70.1590 0170783 305.4427  67.8344 13.75807295980295

Traccia FENGYUN 1C DEB in tempo reale con AllMySat

Download on the App Store